{"data":{"norad_id":53671,"epoch":"2026-09-20T14:14:13.305984Z","epoch_age_seconds":73185,"freshness":"FRESH","line1":"1 53671U 22105Z   26263.59320956  .00000161  00000+0  15067-4 0  9990","line2":"2 53671  97.2853 137.3291 0002305  80.6994 279.4495 15.05656225222553","mean_motion":15.05656225,"eccentricity":0.0002305,"inclination_deg":97.2853,"raan_deg":137.3291,"arg_perigee_deg":80.6994,"mean_anomaly_deg":279.4495,"bstar":1.5067e-5,"rev_number":22255,"period_min":95.63936150166,"perigee_km":547.89524103633,"apogee_km":551.08887803278,"semimajor_km":6927.6290595346,"source":"CELESTRAK","updated_at":"2026-09-21T09:00:32.976717Z"}}